Location: *
(41.7492°S, 135.4150°W)
Time: 19:14:29
(UTC+00:00)

NOAA 12 - Pass Details

Date: 20 September 2021
Orbit: 796 x 815 km, 98.5° (Epoch: 16 October)

Event Time Altitude Azimuth Distance (km) Brightness Sun altitude
Rises 14:16:27 0° 12° (NNE) 3,328 7.4 -7.7°
Reaches altitude 10° 14:18:46 10° 10° (N) 2,406 6.6 -7.3°
Maximum altitude 14:24:07 79° 284° (WNW) 845 4.1 -6.3°
Drops below altitude 10° 14:29:32 10° 196° (SSW) 2,440 6.5 -5.3°
Sets 14:31:55 0° 194° (SSW) 3,379 7.2 -4.9°
